Location: Stamford Observatory
(41.1241°N, 73.5498°W)
Time: 08:32:09
(UTC-04:00)

IRS-P3 - Visible Passes

Search period start: 30 May 2016 00:00
Search period end: 09 June 2016 00:00
Orbit: 814 x 820 km, 98.7° (Epoch: 29 May)

Date Brightness Start Highest point End Pass type
(mag) Time Alt. Az. Time Alt. Az. Time Alt. Az.
30 May 4.8 02:04:49 10° NNE 02:09:56 46° E 02:11:10 39° SE visible
30 May 5.6 03:45:29 10° NNW 03:49:39 24° WNW 03:52:27 16° WSW visible
31 May 5.4 01:43:32 10° NE 01:48:10 29° E 01:49:16 27° ESE visible
31 May 5.0 03:23:22 10° N 03:28:11 36° WNW 03:30:34 24° WSW visible
01 Jun 6.0 01:22:38 10° NE 01:26:19 19° E 01:27:22 18° ESE visible
01 Jun 4.4 03:01:26 10° N 03:06:40 55° WNW 03:08:40 35° SW visible
02 Jun 6.4 01:02:46 10° ENE 01:04:23 11° E 01:05:28 11° E visible
02 Jun 4.0 02:39:41 10° NNE 02:45:03 86° WNW 02:46:46 45° SSW visible
02 Jun 6.2 04:22:16 10° NW 04:24:14 12° WNW 04:26:12 10° W visible
03 Jun 4.4 02:18:05 10° NNE 02:23:23 61° E 02:24:52 44° SSE visible
03 Jun 5.9 03:59:19 10° NNW 04:02:53 18° WNW 04:06:09 11° WSW visible
04 Jun 5.0 01:56:40 10° NNE 02:01:39 38° E 02:02:57 33° SE visible
04 Jun 5.4 03:37:01 10° N 03:41:28 28° WNW 03:44:15 18° WSW visible
05 Jun 5.6 01:35:31 10° NE 01:39:51 25° E 01:41:03 23° ESE visible
05 Jun 4.8 03:14:59 10° N 03:19:59 42° WNW 03:22:21 27° WSW visible
06 Jun 6.1 01:14:50 10° NE 01:17:57 16° E 01:19:09 15° ESE visible
06 Jun 4.2 02:53:07 10° N 02:58:25 66° WNW 03:00:26 38° SW visible
07 Jun 4.1 02:31:25 10° NNE 02:36:48 81° ESE 02:38:31 45° S visible
07 Jun 6.1 04:13:22 10° NNW 04:16:06 14° WNW 04:18:50 10° W visible
08 Jun 4.6 02:09:53 10° NNE 02:15:06 51° E 02:16:37 39° SSE visible
08 Jun 5.7 03:50:46 10° NNW 03:54:43 22° WNW 03:57:54 13° WSW visible
